User: anonymous   Login
Location: Unspecified
(46.0725°N, 13.7344°E)
Time: 04:23:35
(UTC+01:00)
Language:

Cosmos 2058 - Orbit

View from above orbital plane
View from above orbital plane
View from above satellite
View from above satellite

Ground track
Ground track

The orbit data is extracted from the following two-line orbital elements,

1 20465U 90010A   19317.82093522  .00000259  00000-0  19645-4 0  9994
2 20465  82.4867 121.7993 0014767 206.2501 153.7975 14.97929355617002
Epoch (UTC): 13 November 2019 19:42:08
Eccentricity: 0.0014767
inclination: 82.4867°
perigee height: 563 km
apogee height: 583 km
right ascension of ascending node: 121.7993°
argument of perigee: 206.2501°
revolutions per day: 14.97929355
mean anomaly at epoch: 153.7975°
orbit number at epoch: 61700

The dashed part of the orbit path shows where the satellite is in the earth's shadow,  

DLR